Previsão horária em Jõgeva

Hoje, 22 Junho, Terça-feira

Tempo Temperatura Precipitação Vento Pressão Humidade
00:00 +23°C° 0 mm 2 m/s 757 mmHg 78%
01:00 +21°C° 0 mm 2 m/s 757 mmHg 80%
02:00 +21°C° 0 mm 2 m/s 757 mmHg 82%
03:00 +21°C° 0 mm 2 m/s 757 mmHg 81%
04:00 +21°C° 0 mm 2 m/s 756 mmHg 80%
05:00 +21°C° 0 mm 2 m/s 756 mmHg 78%
06:00 +24°C° 0 mm 3 m/s 756 mmHg 73%
07:00 +26°C° 0 mm 3 m/s 756 mmHg 68%
08:00 +27°C° 0 mm 4 m/s 756 mmHg 62%
09:00 +29°C° 0 mm 4 m/s 756 mmHg 58%
10:00 +30°C° 0 mm 5 m/s 755 mmHg 54%
11:00 +33°C° 0 mm 5 m/s 755 mmHg 51%
12:00 +33°C° 0 mm 5 m/s 755 mmHg 50%
13:00 +33°C° 0 mm 5 m/s 755 mmHg 50%
14:00 +33°C° 0 mm 4 m/s 755 mmHg 50%
15:00 +32°C° 0.6 mm 4 m/s 755 mmHg 56%
16:00 +30°C° 0.6 mm 4 m/s 755 mmHg 62%
17:00 +28°C° 0.6 mm 3 m/s 755 mmHg 68%
18:00 +27°C° 1 mm 3 m/s 755 mmHg 74%
19:00 +27°C° 1 mm 2 m/s 755 mmHg 79%
20:00 +26°C° 1 mm 2 m/s 756 mmHg 84%
21:00 +25°C° 0.2 mm 2 m/s 756 mmHg 87%
22:00 +24°C° 0.2 mm 2 m/s 756 mmHg 89%
23:00 +23°C° 0.2 mm 2 m/s 756 mmHg 92%

Amanhã, 23 Junho, Quarta-feira

Tempo Temperatura Precipitação Vento Pressão Humidade
00:00 +23°C° 0 mm 2 m/s 756 mmHg 93%
01:00 +21°C° 0 mm 2 m/s 757 mmHg 93%
02:00 +21°C° 0 mm 2 m/s 757 mmHg 93%
03:00 +22°C° 0 mm 1 m/s 757 mmHg 93%
04:00 +23°C° 0 mm 1 m/s 757 mmHg 93%
05:00 +23°C° 0 mm 1 m/s 757 mmHg 92%
06:00 +25°C° 0 mm 2 m/s 757 mmHg 84%
07:00 +27°C° 0 mm 2 m/s 757 mmHg 76%
08:00 +29°C° 0 mm 2 m/s 757 mmHg 68%
09:00 +30°C° 0.6 mm 3 m/s 757 mmHg 64%
10:00 +31°C° 0.6 mm 3 m/s 757 mmHg 60%
11:00 +33°C° 0.6 mm 3 m/s 757 mmHg 57%
12:00 +34°C° 0 mm 3 m/s 757 mmHg 49%
13:00 +34°C° 0 mm 4 m/s 757 mmHg 42%
14:00 +35°C° 0 mm 4 m/s 757 mmHg 35%
15:00 +35°C° 0 mm 4 m/s 757 mmHg 40%
16:00 +34°C° 0 mm 4 m/s 757 mmHg 45%
17:00 +33°C° 0 mm 3 m/s 756 mmHg 50%
18:00 +30°C° 1.7 mm 3 m/s 757 mmHg 64%
19:00 +27°C° 1.7 mm 3 m/s 757 mmHg 77%
20:00 +24°C° 1.7 mm 2 m/s 758 mmHg 91%
21:00 +23°C° 0.7 mm 2 m/s 758 mmHg 93%
22:00 +21°C° 0.7 mm 2 m/s 758 mmHg 95%
23:00 +20°C° 0.7 mm 2 m/s 759 mmHg 97%

Depois de amanhã, 24 Junho, Quinta-feira

Tempo Temperatura Precipitação Vento Pressão Humidade
00:00 +19°C° 0 mm 2 m/s 759 mmHg 97%
01:00 +19°C° 0 mm 2 m/s 759 mmHg 97%
02:00 +18°C° 0 mm 2 m/s 759 mmHg 97%
03:00 +18°C° 0 mm 2 m/s 759 mmHg 97%
04:00 +18°C° 0 mm 2 m/s 759 mmHg 97%
05:00 +18°C° 0 mm 2 m/s 759 mmHg 96%
06:00 +19°C° 0.1 mm 2 m/s 759 mmHg 90%
07:00 +20°C° 0.1 mm 2 m/s 759 mmHg 84%
08:00 +21°C° 0.1 mm 2 m/s 760 mmHg 78%
09:00 +23°C° 0 mm 2 m/s 760 mmHg 71%
10:00 +25°C° 0 mm 2 m/s 760 mmHg 64%
11:00 +26°C° 0 mm 2 m/s 760 mmHg 57%
12:00 +27°C° 0 mm 2 m/s 759 mmHg 54%
13:00 +28°C° 0 mm 2 m/s 759 mmHg 52%
14:00 +29°C° 0 mm 2 m/s 759 mmHg 49%
15:00 +29°C° 0 mm 2 m/s 759 mmHg 50%
16:00 +29°C° 0 mm 2 m/s 758 mmHg 51%
17:00 +29°C° 0 mm 2 m/s 758 mmHg 52%
18:00 +27°C° 0 mm 2 m/s 758 mmHg 58%
19:00 +25°C° 0 mm 2 m/s 758 mmHg 65%
20:00 +23°C° 0 mm 2 m/s 758 mmHg 71%
21:00 +21°C° 0.1 mm 2 m/s 758 mmHg 76%
22:00 +20°C° 0.1 mm 1 m/s 758 mmHg 81%
23:00 +18°C° 0.1 mm 1 m/s 759 mmHg 86%

25 Junho, Sexta-feira

Tempo Temperatura Precipitação Vento Pressão Humidade
00:00 +18°C° 0 mm 1 m/s 758 mmHg 88%
01:00 +16°C° 0 mm 1 m/s 758 mmHg 90%
02:00 +16°C° 0 mm 1 m/s 758 mmHg 93%
03:00 +16°C° 0 mm 1 m/s 758 mmHg 92%
04:00 +18°C° 0 mm 1 m/s 758 mmHg 91%
05:00 +18°C° 0 mm 1 m/s 758 mmHg 91%
06:00 +20°C° 0 mm 1 m/s 758 mmHg 83%
07:00 +20°C° 0 mm 0 m/s 758 mmHg 75%
08:00 +22°C° 0 mm 0 m/s 758 mmHg 67%
09:00 +23°C° 0 mm 0 m/s 758 mmHg 62%
10:00 +25°C° 0 mm 0 m/s 758 mmHg 56%
11:00 +27°C° 0 mm 0 m/s 757 mmHg 51%
12:00 +27°C° 0 mm 0 m/s 757 mmHg 50%
13:00 +28°C° 0 mm 0 m/s 757 mmHg 48%
14:00 +29°C° 0 mm 0 m/s 757 mmHg 47%
15:00 +29°C° 0 mm 0 m/s 756 mmHg 47%
16:00 +30°C° 0 mm 1 m/s 756 mmHg 48%
17:00 +30°C° 0 mm 1 m/s 756 mmHg 49%
18:00 +29°C° 0 mm 1 m/s 755 mmHg 57%
19:00 +27°C° 0 mm 2 m/s 755 mmHg 65%
20:00 +26°C° 0 mm 2 m/s 754 mmHg 73%
21:00 +24°C° 0.4 mm 2 m/s 755 mmHg 79%
22:00 +23°C° 0.4 mm 2 m/s 755 mmHg 85%
23:00 +21°C° 0.4 mm 1 m/s 756 mmHg 91%

26 Junho, Sábado

Tempo Temperatura Precipitação Vento Pressão Humidade
00:00 +21°C° 0 mm 1 m/s 755 mmHg 92%
01:00 +20°C° 0 mm 2 m/s 755 mmHg 92%
02:00 +19°C° 0 mm 2 m/s 755 mmHg 92%
03:00 +20°C° 0.8 mm 1 m/s 755 mmHg 94%
04:00 +20°C° 0.8 mm 1 m/s 755 mmHg 95%
05:00 +20°C° 0.8 mm 1 m/s 755 mmHg 97%
06:00 +21°C° 0.1 mm 1 m/s 755 mmHg 96%
07:00 +20°C° 0.1 mm 2 m/s 755 mmHg 94%
08:00 +21°C° 0.1 mm 2 m/s 755 mmHg 93%
09:00 +23°C° 0 mm 2 m/s 755 mmHg 87%
10:00 +25°C° 0 mm 2 m/s 755 mmHg 81%
11:00 +26°C° 0 mm 2 m/s 755 mmHg 75%
12:00 +26°C° 0.7 mm 1 m/s 755 mmHg 76%
13:00 +27°C° 0.7 mm 1 m/s 755 mmHg 77%
14:00 +27°C° 0.7 mm 1 m/s 755 mmHg 78%
15:00 +27°C° 1.7 mm 1 m/s 755 mmHg 80%
16:00 +27°C° 1.7 mm 1 m/s 755 mmHg 82%
17:00 +26°C° 1.7 mm 1 m/s 755 mmHg 84%
18:00 +26°C° 0.2 mm 1 m/s 755 mmHg 86%
19:00 +25°C° 0.2 mm 1 m/s 754 mmHg 89%
20:00 +25°C° 0.2 mm 1 m/s 754 mmHg 92%
21:00 +24°C° 0.1 mm 1 m/s 755 mmHg 93%
22:00 +23°C° 0.1 mm 1 m/s 755 mmHg 94%
23:00 +22°C° 0.1 mm 1 m/s 755 mmHg 95%

27 Junho, Domingo

Tempo Temperatura Precipitação Vento Pressão Humidade
00:00 +21°C° 0 mm 1 m/s 756 mmHg 96%
01:00 +21°C° 0 mm 1 m/s 756 mmHg 96%
02:00 +21°C° 0 mm 1 m/s 756 mmHg 96%
03:00 +21°C° 0 mm 1 m/s 756 mmHg 96%
04:00 +21°C° 0 mm 1 m/s 756 mmHg 96%
05:00 +21°C° 0 mm 1 m/s 756 mmHg 96%
06:00 +22°C° 0 mm 1 m/s 757 mmHg 90%
07:00 +24°C° 0 mm 1 m/s 757 mmHg 84%
08:00 +25°C° 0 mm 1 m/s 757 mmHg 78%
09:00 +27°C° 0 mm 1 m/s 757 mmHg 72%
10:00 +28°C° 0 mm 1 m/s 757 mmHg 66%
11:00 +29°C° 0 mm 1 m/s 757 mmHg 61%
12:00 +29°C° 0.4 mm 1 m/s 757 mmHg 62%
13:00 +27°C° 0.4 mm 0 m/s 757 mmHg 64%
14:00 +27°C° 0.4 mm 0 m/s 757 mmHg 65%
15:00 +29°C° 0.3 mm 1 m/s 757 mmHg 69%
16:00 +28°C° 0.3 mm 1 m/s 757 mmHg 72%
17:00 +27°C° 0.3 mm 2 m/s 757 mmHg 75%
18:00 +26°C° 0.1 mm 2 m/s 757 mmHg 81%
19:00 +24°C° 0.1 mm 2 m/s 757 mmHg 86%
20:00 +23°C° 0.1 mm 2 m/s 757 mmHg 91%
21:00 +21°C° 0.1 mm 2 m/s 757 mmHg 92%
22:00 +21°C° 0.1 mm 2 m/s 757 mmHg 93%
23:00 +20°C° 0.1 mm 2 m/s 757 mmHg 94%
Mostrar mais

Necessitamos do seu Consentimento

A Meteoprog e os seus Fornecedores de Serviços podem armazenar e aceder a dados pessoais como cookies, identificadores do dispositivo ou outras tecnologias semelhantes existentes no seu dispositivo e processar estes dados para personalizar conteúdos e anúncios, assim como funcionalidades nas redes sociais e análise de tráfego.

  • Armazenar e/ou aceder a informações no seu dispositivo

    Os cookies, identificadores do dispositivo ou outras informações podem ser armazenados ou acedidos no seu dispositivo, para os fins acima indicados.

  • Anúncios e conteúdos personalizados, medição de anúncios e conteúdos, dados sobre o público-alvo e desenvolvimento de produtos

    Os anúncios e os conteúdos podem ser personalizados com base num perfil. Podem ser adicionados dados adicionais para uma maior personalização dos anúncios e dos conteúdos. A eficácia dos anúncios e dos conteúdos pode ser medida. Podem ser obtidas informações sobre o público que visualizou os anúncios e os conteúdos. Estes dados podem ser usados para desenvolver ou melhorar sistemas, softwares ou a experiência do utilizador.

Ao clicar em "Eu concordo”, permitirá o uso de cookies, identificadores do dispositivo e web beacons mencionados ou outras tecnologias semelhantes. As configurações do navegador do seu dispositivo podem ser alteradas.

Para certos fins, podem ser invocados interesses legítimos ao invés de consentimento. Pode ler mais informação sobre este assunto na nossa Política de Privacidade e Cookies.